Regional Weather Roundup
Issued by NWS

Home | Current Version | Previous Version | Graphics & Text | Print | Product List | Glossary On
Versions: 1 2 3 4 5 6 7 8 9 10 11 12 13 14 15 16 17 18 19 20 21 22 23 24 25 26 27 28 29 30 31 32 33 34 35 36 37 38 39 40 41 42 43 44 45 46 47 48 49 50
694
ASUS43 KDMX 010108
RWRIA

WEATHER ROUNDUP FOR IOWA
NATIONAL WEATHER SERVICE DES MOINES IA
800 PM CDT FRI SEP 30 2016

NOTE: "FAIR" INDICATES FEW OR NO CLOUDS BELOW 12,000 FEET WITH NO
SIGNIFICANT WEATHER AND/OR OBSTRUCTIONS TO VISIBILITY.

* - THESE STATIONS ARE NOT NWS STATIONS...THUS NOT UNDER NWS
QUALITY CONTROL.  THEY ALSO DO NOT REPORT WEATHER SUCH
AS PRECIPITATION OR FOG.

IAZ001>003-012>014-020>022-031>034-043>046-010200-
   NORTHWEST IOWA

CITY           SKY/WX    TMP DP  RH WIND       PRES   REMARKS
CARROLL *      CLOUDY    64  55  72 E7        30.16F
CHEROKEE *     CLEAR     60  53  76 E5        30.16F
DENISON *      MOCLDY    63  55  77 E5        30.14S
LE MARS *      CLEAR     57  50  77 CALM      30.17S
SHELDON *      CLEAR     57  50  77 NE8       30.16F
SIOUX CITY     CLOUDY    63  49  60 E3        30.15F
SPENCER        CLOUDY    64  54  69 E9        30.18S
STORM LAKE *   MOCLDY    64  54  68 E6        30.18R
$$

IAZ055>058-069>071-079>083-090>094-010200-
   SOUTHWEST IOWA

CITY           SKY/WX    TMP DP  RH WIND       PRES   REMARKS
ATLANTIC *     CLEAR     61  54  77 CALM      30.16S
AUDUBON *      MOCLDY    61  55  82 CALM      30.17S
CLARINDA *       N/A     59  54  82 MISG      30.17F
COUNCIL BLFS * CLEAR     63  54  72 E9        30.15S
CRESTON *      CLOUDY    61  54  77 NE5       30.17F
HARLAN  *      PTCLDY    61  54  77 CALM      30.19S
LAMONI         CLOUDY    61  55  81 N7        30.16S
RED OAK *      CLEAR     61  54  77 E7        30.16S
SHENANDOAH *   CLEAR     63  54  72 E10       30.16R
$$

IAZ047>049-059>061-072>074-084-010200-
   CENTRAL IOWA

CITY           SKY/WX    TMP DP  RH WIND       PRES   REMARKS
AMES           CLOUDY    62  57  83 CALM      30.17S
ANKENY *         N/A    N/A N/A N/A MISG        N/A
BOONE *        CLOUDY    61  55  82 CALM      30.17S
CHARITON *       N/A     61  57  88 NW5       30.15F
DES MOINES     CLOUDY    64  55  72 NE5       30.16S
GRINNELL*      CLOUDY    60  55  84 NE8       30.16F
KNOXVILLE *    CLOUDY    63  55  77 N5        30.14S
MARSHALLTOWN   CLOUDY    61  56  83 NE9       30.16F
NEWTON *       CLOUDY    63  55  77 NE9       30.15F
PELLA *        PTCLDY    61  55  79 N3        30.15F
PERRY *        CLOUDY    63  58  84 NE3       30.18S
$$

IAZ004>006-015-016-023>025-035-036-010200-
   NORTH CENTRAL IOWA

CITY           SKY/WX    TMP DP  RH WIND       PRES   REMARKS
ALGONA *       CLOUDY    64  55  72 CALM      30.19S
CLARION *      CLOUDY    63  57  82 E8        30.19S
ESTHERVILLE    CLOUDY    64  54  69 NE6       30.19S
FORT DODGE *   CLOUDY    63  54  72 CALM      30.19S
MASON CITY     CLOUDY    62  54  74 CALM      30.20S
FOREST CITY *  CLOUDY    63  54  72 SE5       30.19S
WEBSTER CITY * CLOUDY    63  55  77 CALM      30.16F
IOWA FALLS *   CLOUDY    62  55  79 NE5       30.19S
$$

IAZ007>011-017>019-026>030-037>042-050>054-066-010200-
   NORTHEAST IOWA

CITY           SKY/WX    TMP DP  RH WIND       PRES   REMARKS
CEDAR RAPIDS   CLOUDY    61  58  90 N9        30.14F
CHARLES CITY * CLOUDY    63  57  82 E5        30.19F
CLINTON *      CLOUDY    61  59  93 N9        30.12S
DECORAH *      CLOUDY    59  57  94 E6        30.18F
DUBUQUE        CLOUDY    58  58 100 NE8       30.15S
MONTICELLO *   CLOUDY    61  57  88 NE5       30.14F
OELWEIN *      CLOUDY    59  57  94 N8        30.17F
WATERLOO       CLOUDY    61  56  83 NE10      30.16F
$$

IAZ064-065-067-068-078-010200-
   EAST CENTRAL IOWA

CITY           SKY/WX    TMP DP  RH WIND       PRES   REMARKS
DAVENPORT      CLOUDY    60  58  92 N10       30.12S FOG
IOWA CITY      CLOUDY    62  57  83 N6        30.15S
MT. PLEASANT * CLOUDY    61  61 100 N9        30.13S
MUSCATINE *    CLOUDY    61  59  94 N9G15     30.12F FOG
QUAD CITIES    CLOUDY    62  59  90 N5        30.10F
$$

IAZ062-063-075>077-085>089-095>099-010200-
   SOUTHEAST IOWA

CITY           SKY/WX    TMP DP  RH WIND       PRES   REMARKS
BURLINGTON     CLOUDY    62  58  86 N12       30.10S
FAIRFIELD *    CLOUDY    63  55  77 N6        30.13S
FORT MADISON *   N/A     61  57  88 N10       30.12S
KEOKUK *       CLOUDY    63  57  82 N12G20    30.10S
OSKALOOSA *    CLOUDY    61  55  82 N5        30.14F
OTTUMWA        CLOUDY    62  55  77 N7        30.14S
WASHINGTON *     N/A    N/A N/A N/A MISG        N/A
$$

ABBREVIATIONS USED IN REMARKS
   TC - TEMPERATURES IN CELSIUS
  WCI - WIND CHILL INDEX
   HX - HEAT INDEX
  VSB - VISIBILITY
$$





USA.gov is the U.S. government's official web portal to all federal, state and local government web resources and services.